Simultaneous Nadir Overpasses (SNOs) Predictions

Prediction of SNOs between FY3D and AQUA Satellite Orbit:

Table of predicted SNOs for the next 14.0 days since TLE Epoch: 10/2/2021
Index Date (FY3D) Time (FY3D) Lat,Lon (FY3D) SZA (FY3D ) Date (AQUA) Time (AQUA) Lat,Lon (AQUA) SZA (AQUA ) Distance(km) Time Diff (sec)
1 10/03/2021 10:31:40 -69.43,-156.85 106.50 10/03/2021 10:32:51 -69.42,-156.81 106.50 1.47 71
2 10/03/2021 11:21:14 65.57, 15.16 69.86 10/03/2021 11:21:09 65.57, 15.17 69.85 0.35 5
3 10/06/2021 02:53:57 -80.92,-123.87 86.88 10/06/2021 02:55:10 -81.55,-124.85 86.64 71.79 73
4 10/06/2021 03:37:45 66.31, 130.33 71.58 10/06/2021 03:37:51 66.31, 130.32 71.58 0.15 6
5 10/06/2021 04:26:56 -61.26, -57.74 113.04 10/06/2021 04:25:48 -61.27, -57.74 113.07 0.37 68
6 10/08/2021 19:54:13 66.88,-114.36 73.15 10/08/2021 19:54:30 66.88,-114.39 73.16 1.40 17
7 10/08/2021 20:43:48 -63.17, 56.65 110.26 10/08/2021 20:42:50 -63.17, 56.69 110.29 2.16 58
8 10/11/2021 12:10:55 68.20, -0.02 75.42 10/11/2021 12:11:22 68.20, 0.02 75.42 1.64 27
9 10/11/2021 13:00:12 -63.53, 172.29 108.91 10/11/2021 12:59:25 -63.53, 172.28 108.93 0.59 47
10 10/14/2021 04:27:14 68.34, 115.75 76.56 10/14/2021 04:27:52 68.34, 115.72 76.57 1.26 38



Historial Predications of SNOs between FY3D and AQUA
